Location: *
(57.8420°S, 159.8600°W)
Time: 11:38:13
(UTC+00:00)

Cosmos 2278 Rocket - Pass Details

Date: 18 May 2021
Orbit: 841 x 845 km, 71.0° (Epoch: 22 June)

Event Time Altitude Azimuth Distance (km) Brightness Sun altitude
Rises 04:30:51 0° 218° (SW) 3,448 5.7 -15.8°
Reaches altitude 10° 04:33:32 10° 227° (SW) 2,505 5.1 -16.2°
Maximum altitude 04:38:35 33° 288° (WNW) 1,418 4.1 -16.8°
Drops below altitude 10° 04:43:35 10° 350° (N) 2,479 4.9 -17.5°
Sets 04:46:14 0° 359° (N) 3,406 5.5 -17.9°
